Location: Newark
(47.3000°N, 8.0500°E)
Time: 01:02:30
(UTC+00:00)

Starlink (trailer) - Visible Passes

Search period start: 15 October 2019 00:00
Search period end: 25 October 2019 00:00
Orbit: 549 x 551 km, 53.0° (Epoch: 14 October)

Date Brightness Start Highest point End Pass type
(mag) Time Alt. Az. Time Alt. Az. Time Alt. Az.
15 Oct 3.6 17:30:49 10° WSW 17:34:58 85° SSE 17:38:46 12° ENE visible
15 Oct 4.8 19:10:55 10° W 19:14:25 39° NNW 19:14:25 39° NNW visible
16 Oct 3.7 17:25:26 10° WSW 17:29:34 79° NNW 17:33:35 11° ENE visible
16 Oct 4.8 19:05:40 10° WNW 19:09:14 37° NNW 19:09:14 37° NNW visible
17 Oct 3.9 17:20:05 10° WSW 17:24:12 66° NNW 17:28:21 10° ENE visible
17 Oct 4.8 19:00:24 10° WNW 19:04:01 36° NNW 19:04:01 36° NNW visible
18 Oct 4.1 17:14:46 10° W 17:18:51 56° NNW 17:22:57 10° ENE visible
18 Oct 4.7 18:55:06 10° WNW 18:58:45 36° N 18:58:45 36° N visible
19 Oct 4.3 17:09:29 10° W 17:13:31 49° NNW 17:17:33 10° ENE visible
19 Oct 4.7 18:49:48 10° WNW 18:53:29 37° N 18:53:29 37° N visible
20 Oct 4.4 17:04:12 10° W 17:08:11 44° NNW 17:12:10 10° ENE visible
20 Oct 4.5 18:44:27 10° WNW 18:48:13 38° N 18:48:13 38° N visible
21 Oct 4.5 16:58:55 10° W 17:02:52 40° N 17:06:48 10° ENE visible
21 Oct 4.4 18:39:07 10° WNW 18:42:57 41° N 18:42:57 41° N visible
22 Oct 4.6 16:53:39 10° WNW 16:57:33 38° N 17:01:27 10° ENE visible
22 Oct 4.2 18:33:44 10° WNW 18:37:41 45° NNE 18:37:41 45° NNE visible
23 Oct 4.0 18:28:20 10° WNW 18:32:24 50° NNE 18:32:27 50° NNE visible
23 Oct 6.9 20:08:00 10° WNW 20:08:06 10° WNW 20:08:06 10° WNW visible
24 Oct 3.7 18:22:56 10° WNW 18:27:02 58° NNE 18:27:14 57° NE visible
24 Oct 6.9 20:02:41 10° WNW 20:02:54 11° WNW 20:02:54 11° WNW visible
